{"data":{"norad_id":69420,"epoch":"2026-09-19T08:56:50.928288Z","epoch_age_seconds":126437,"freshness":"FRESH","line1":"1 69420U 26126A   26262.37281167  .00012049  00000+0  37494-3 0  9996","line2":"2 69420  97.2861 123.6526 0002416  91.6232 268.5287 15.33443408 17356","mean_motion":15.33443408,"eccentricity":0.0002416,"inclination_deg":97.2861,"raan_deg":123.6526,"arg_perigee_deg":91.6232,"mean_anomaly_deg":268.5287,"bstar":0.00037494,"rev_number":1735,"period_min":93.906302148974,"perigee_km":463.89447687963,"apogee_km":467.2013454287,"semimajor_km":6843.6849111542,"source":"CELESTRAK","updated_at":"2026-09-20T09:00:44.194004Z"}}